Tracking 19145 objects as of 25-Apr-2018
HD Live streaming from Space Station
objects crossing your sky now

FENGYUN 1C DEB

Track FENGYUN 1C DEB now!
10-day predictions


NORAD ID: 31097
Int'l Code: 1999-025BGT
Perigee: 822.9 km
Apogee: 852.4 km
Inclination: 98.9 °
Period: 101.5 minutes
Semi major axis: 7208 km
RCS: 0.0109 m2 (small)
Launch date: May 10, 1999
Source: People's Republic of China (PRC)
Launch site: Taiyaun Space Center, China (TSC)

Note: This is SATELLITE DEBRIS
aabbcc
Your satellite tracking list
Your tracking list is empty




NASA's NSSDC Master Catalog

Two Line Element Set (TLE):
1 31097U 99025BGT 18114.61474381 +.00001078 +00000-0 +54237-3 0  9994
2 31097 098.9355 166.5386 0020499 074.3631 078.3303 14.18472633573125
Source of the keplerian elements: AFSPC